Terug naar catalogus

COSMOS 1275 DEB

ActiefPO
NORAD 13456·DEBRIS·🇷🇺 Russia

Gelanceerd Jun 4, 1981 vanaf Plesetsk Cosmodrome

Loading…

Volgende Passages (komende 24 uur)

TLE

VersSource: Space-Track

Epoch: Sep 14, 2026, 01:34 UTC

1 13456U 81053FC  26257.06534413  .00002988  00000-0  22572-2 0  9991
2 13456  82.8276 293.1812 0147475 162.0835 227.0303 13.88812482224508

Volg COSMOS 1275 DEB in realtime met AllMySat

Download on the App Store